Home   Weather   Zürich   Past weeks

Flag for Switzerland Past Weather in Zürich, Zurich, Switzerland — Yesterday and Last 2 Weeks

Now
45 °F

Cool.


Feels Like: 44 °F
Forecast: 28 / 65 °F
Wind: 3 mph from Southeast

Location: Zuerich-Fluntern

Current Time: Apr 29, 2017 at 1:32:41 pm

Latest Report: Apr 29, 2017 at 12:00 pm


Visibility: N/A

Pressure: 30.08 "Hg

Humidity: 68%

Dew Point: 35 °F

Location of ZürichLocation

Past Weather in Zürich — Graph

°F

Zürich Temperature Yesterday

Maximum temperature yesterday: 40 °F (at 6:00 pm)
Minimum temperature yesterday: 32 °F (at 3:00 am)
Average temperature yesterday: 35 °F

High & Low Weather Summary for the Past Weeks

 TemperatureHumidityPressure
High66 °F (Apr 24, 5:00 pm)100% (Apr 26, 10:00 am)30.57 "Hg (Apr 26, 10:00 am)
Low28 °F (Apr 20, 6:00 am)26% (Apr 21, 6:00 pm)29.74 "Hg (Apr 26, 12:00 am)
Average43 °F73%30.14 "Hg
* Reported Apr 14 12:00 pm — Apr 29 12:00 pm, Zürich, Weather by CustomWeather, © 2017

Note: Actual official high and low records may vary slightly from our data, if they occured in-between our weather recording intervals... More about our weather records

Advertising

Zürich Weather History for the Previous 24 Hours

Scroll right to see more
 ConditionsComfort  
Time TempWeatherWind HumidityBarometerVisibility
12:00 pm
Sat, Apr 29
45 °FCool.3 mph68%30.08 "HgN/A
11:00 am46 °FCool.5 mph73%30.09 "HgN/A
10:00 am42 °FQuite cool.1 mph83%30.12 "HgN/A
9:00 am37 °FChilly.2 mph87%30.14 "HgN/A
8:00 am35 °FChilly.1 mph92%30.15 "HgN/A
7:00 am33 °FChilly.1 mph97%30.16 "HgN/A
6:00 am33 °FChilly.1 mph96%30.16 "HgN/A
5:00 am34 °FChilly.2 mph95%30.16 "HgN/A
4:00 am34 °FChilly.2 mph96%30.16 "HgN/A
3:00 am35 °FChilly.3 mph95%30.15 "HgN/A
2:00 am35 °FChilly.2 mph95%30.16 "HgN/A
1:00 am36 °FChilly.2 mph89%30.15 "HgN/A
12:00 am36 °FChilly.2 mph90%30.15 "HgN/A
11:00 pm
Fri, Apr 28
36 °FChilly.3 mph91%30.14 "HgN/A
10:00 pm36 °FChilly.5 mph92%30.14 "HgN/A
9:00 pm36 °FChilly.6 mph90%30.13 "HgN/A
8:00 pm37 °FOvercast.8 mph93%30.10 "HgN/A
7:00 pm39 °FChilly.7 mph85%30.08 "HgN/A
6:00 pm40 °FQuite cool.7 mph82%30.07 "HgN/A
5:00 pm40 °FChilly.6 mph85%30.06 "HgN/A
4:00 pm38 °FChilly.6 mph91%30.06 "HgN/A
3:00 pm37 °FChilly.6 mph94%30.05 "HgN/A
2:00 pm36 °FOvercast.2 mph91%30.04 "HgN/A
1:00 pm39 °FChilly.1 mph89%30.01 "HgN/A
Weather by CustomWeather, © 2017

See weather overviewHow to use our weather pages